TimeCST,TemperatureF,Dew PointF,Humidity,Sea Level PressureIn,VisibilityMPH,Wind Direction,Wind SpeedMPH,Gust SpeedMPH,PrecipitationIn,Events,Conditions,WindDirDegrees,DateUTC
12:54 AM,37.9,21.0,51,30.10,10.0,WSW,3.5,-,N/A,,Clear,240,2012-12-04 06:54:00
1:54 AM,37.9,21.0,51,30.11,10.0,Calm,Calm,-,N/A,,Clear,0,2012-12-04 07:54:00
2:54 AM,36.0,19.9,52,30.12,10.0,West,3.5,-,N/A,,Clear,260,2012-12-04 08:54:00
3:54 AM,34.0,21.0,59,30.13,10.0,West,6.9,-,N/A,,Clear,270,2012-12-04 09:54:00
4:54 AM,30.9,19.0,61,30.15,10.0,Calm,Calm,-,N/A,,Clear,0,2012-12-04 10:54:00
5:54 AM,28.0,17.1,63,30.18,10.0,Calm,Calm,-,N/A,,Clear,0,2012-12-04 11:54:00
6:54 AM,27.0,18.0,69,30.20,10.0,Calm,Calm,-,N/A,,Clear,0,2012-12-04 12:54:00
7:54 AM,25.0,17.1,72,30.22,10.0,South,5.8,-,N/A,,Clear,170,2012-12-04 13:54:00
8:54 AM,34.0,23.0,64,30.25,10.0,South,3.5,-,N/A,,Clear,180,2012-12-04 14:54:00
9:54 AM,43.0,21.9,43,30.26,10.0,NW,3.5,-,N/A,,Clear,310,2012-12-04 15:54:00
10:54 AM,51.1,24.1,35,30.26,10.0,NNW,4.6,-,N/A,,Clear,330,2012-12-04 16:54:00
11:54 AM,54.0,23.0,30,30.24,10.0,NNW,3.5,-,N/A,,Clear,330,2012-12-04 17:54:00
12:54 PM,57.9,21.9,25,30.23,10.0,NW,8.1,-,N/A,,Clear,310,2012-12-04 18:54:00
1:54 PM,60.1,21.9,23,30.22,10.0,NNW,8.1,-,N/A,,Clear,330,2012-12-04 19:54:00
2:54 PM,60.1,21.0,22,30.21,10.0,NW,8.1,-,N/A,,Clear,310,2012-12-04 20:54:00
3:54 PM,59.0,21.9,24,30.22,10.0,North,3.5,-,N/A,,Clear,350,2012-12-04 21:54:00
4:54 PM,48.9,21.9,35,30.26,10.0,NE,5.8,-,N/A,,Clear,50,2012-12-04 22:54:00
5:54 PM,43.0,21.9,43,30.27,8.0,NNE,5.8,-,N/A,,Clear,20,2012-12-04 23:54:00
6:54 PM,36.0,19.9,52,30.29,10.0,North,8.1,-,N/A,,Clear,350,2012-12-05 00:54:00
7:54 PM,35.1,21.0,57,30.29,10.0,North,6.9,-,N/A,,Clear,360,2012-12-05 01:54:00
8:54 PM,34.0,21.0,59,30.29,10.0,Calm,Calm,-,N/A,,Clear,0,2012-12-05 02:54:00
9:54 PM,33.1,21.0,61,30.30,10.0,North,5.8,-,N/A,,Clear,350,2012-12-05 03:54:00
10:54 PM,33.1,19.9,59,30.31,10.0,NNW,4.6,-,N/A,,Clear,340,2012-12-05 04:54:00
11:54 PM,27.0,16.0,63,30.31,10.0,Calm,Calm,-,N/A,,Clear,0,2012-12-05 05:54:00